When you browse on this site, cookies collect data to enhance your experience and personalize the content and advertising you see.
Visit our Privacy Policy to learn more. By continuing to use the site, you agree to this use of cookies and data.
  • In Slovakia
  • List of Countries
  • For 7 days
  • Water Temperature
  • Satellite Maps
  • Weather Map
  • Weather Widgets
  • user-avatar
    Login

    Hourly Weather Yashtreksola

    Today, 18 January, Friday

    Time Temperature Precipitation Wind Pressure Humidity
    00:00 -13°C° 0 mm 8 mps 739 mmHg 89%
    01:00 -12°C° 0.1 mm 8 mps 738 mmHg 89%
    02:00 -12°C° 0.1 mm 8 mps 738 mmHg 89%
    03:00 -12°C° 0.1 mm 9 mps 737 mmHg 89%
    04:00 -12°C° 0.3 mm 9 mps 737 mmHg 90%
    05:00 -11°C° 0.3 mm 9 mps 736 mmHg 90%
    06:00 -11°C° 0.3 mm 9 mps 736 mmHg 90%
    07:00 -10°C° 0.2 mm 9 mps 735 mmHg 90%
    08:00 -10°C° 0.2 mm 9 mps 735 mmHg 89%
    09:00 -9°C° 0.2 mm 9 mps 735 mmHg 89%
    10:00 -8°C° 0.2 mm 9 mps 735 mmHg 89%
    11:00 -6°C° 0.2 mm 9 mps 735 mmHg 88%
    12:00 -6°C° 0.2 mm 8 mps 736 mmHg 88%
    13:00 -5°C° 0 mm 8 mps 736 mmHg 88%
    14:00 -5°C° 0 mm 8 mps 737 mmHg 88%
    15:00 -4°C° 0 mm 8 mps 737 mmHg 88%
    16:00 -3°C° 0.1 mm 7 mps 738 mmHg 88%
    17:00 -3°C° 0.1 mm 7 mps 738 mmHg 89%
    18:00 -3°C° 0.1 mm 6 mps 739 mmHg 89%
    19:00 -3°C° 0 mm 6 mps 739 mmHg 89%
    20:00 -3°C° 0 mm 6 mps 739 mmHg 90%
    21:00 -3°C° 0 mm 6 mps 739 mmHg 90%
    22:00 -3°C° 0 mm 6 mps 739 mmHg 91%
    23:00 -3°C° 0 mm 6 mps 739 mmHg 91%

    Tomorrow, 19 January, Saturday

    Time Temperature Precipitation Wind Pressure Humidity
    00:00 -3°C° 0 mm 6 mps 739 mmHg 91%
    01:00 -4°C° 0.1 mm 6 mps 739 mmHg 91%
    02:00 -4°C° 0.1 mm 6 mps 739 mmHg 91%
    03:00 -4°C° 0.1 mm 6 mps 738 mmHg 91%
    04:00 -4°C° 0.3 mm 7 mps 738 mmHg 91%
    05:00 -5°C° 0.3 mm 8 mps 737 mmHg 91%
    06:00 -5°C° 0.3 mm 9 mps 736 mmHg 91%
    07:00 -4°C° 0.4 mm 9 mps 736 mmHg 90%
    08:00 -4°C° 0.4 mm 9 mps 735 mmHg 90%
    09:00 -3°C° 0.4 mm 9 mps 735 mmHg 89%
    10:00 -2°C° 0.1 mm 8 mps 736 mmHg 88%
    11:00 -2°C° 0.1 mm 8 mps 736 mmHg 87%
    12:00 -2°C° 0.1 mm 8 mps 737 mmHg 87%
    13:00 -4°C° 0.1 mm 7 mps 737 mmHg 88%
    14:00 -8°C° 0.1 mm 6 mps 738 mmHg 88%
    15:00 -9°C° 0.1 mm 4 mps 738 mmHg 89%
    16:00 -11°C° 0 mm 4 mps 739 mmHg 90%
    17:00 -13°C° 0 mm 3 mps 739 mmHg 91%
    18:00 -15°C° 0 mm 3 mps 740 mmHg 92%
    19:00 -16°C° 0 mm 3 mps 740 mmHg 93%
    20:00 -16°C° 0 mm 3 mps 741 mmHg 94%
    21:00 -16°C° 0 mm 3 mps 741 mmHg 95%
    22:00 -17°C° 0 mm 3 mps 741 mmHg 96%
    23:00 -17°C° 0 mm 3 mps 742 mmHg 97%

    Day after tomorrow, 20 January, Sunday

    Time Temperature Precipitation Wind Pressure Humidity
    00:00 -18°C° 0 mm 3 mps 742 mmHg 98%
    01:00 -18°C° 0 mm 3 mps 742 mmHg 98%
    02:00 -18°C° 0 mm 3 mps 742 mmHg 98%
    03:00 -18°C° 0 mm 3 mps 743 mmHg 98%
    04:00 -18°C° 0 mm 3 mps 743 mmHg 98%
    05:00 -18°C° 0 mm 3 mps 743 mmHg 98%
    06:00 -18°C° 0 mm 3 mps 743 mmHg 98%
    07:00 -17°C° 0 mm 3 mps 743 mmHg 97%
    08:00 -16°C° 0 mm 3 mps 743 mmHg 97%
    09:00 -16°C° 0 mm 4 mps 744 mmHg 96%
    10:00 -15°C° 0 mm 4 mps 744 mmHg 94%
    11:00 -14°C° 0 mm 4 mps 744 mmHg 92%
    12:00 -13°C° 0 mm 5 mps 744 mmHg 90%
    13:00 -12°C° 0 mm 4 mps 744 mmHg 91%
    14:00 -14°C° 0 mm 4 mps 744 mmHg 91%
    15:00 -14°C° 0 mm 4 mps 744 mmHg 91%
    16:00 -15°C° 0 mm 4 mps 744 mmHg 93%
    17:00 -15°C° 0 mm 4 mps 744 mmHg 94%
    18:00 -15°C° 0 mm 3 mps 745 mmHg 95%
    19:00 -15°C° 0 mm 4 mps 744 mmHg 95%
    20:00 -14°C° 0 mm 5 mps 744 mmHg 94%
    21:00 -13°C° 0 mm 5 mps 744 mmHg 93%
    22:00 -14°C° 0.1 mm 6 mps 744 mmHg 92%
    23:00 -14°C° 0.1 mm 6 mps 744 mmHg 92%

    21 January, Monday

    Time Temperature Precipitation Wind Pressure Humidity
    00:00 -12°C° 0.1 mm 6 mps 743 mmHg 91%
    01:00 -12°C° 0.1 mm 6 mps 743 mmHg 91%
    02:00 -11°C° 0.1 mm 6 mps 743 mmHg 91%
    03:00 -12°C° 0.1 mm 7 mps 742 mmHg 91%
    04:00 -12°C° 0.2 mm 7 mps 742 mmHg 90%
    05:00 -12°C° 0.2 mm 7 mps 742 mmHg 90%
    06:00 -12°C° 0.2 mm 7 mps 741 mmHg 90%
    07:00 -12°C° 0 mm 7 mps 742 mmHg 90%
    08:00 -12°C° 0 mm 7 mps 742 mmHg 90%
    09:00 -11°C° 0 mm 6 mps 742 mmHg 90%
    10:00 -11°C° 0.1 mm 6 mps 742 mmHg 91%
    11:00 -12°C° 0.1 mm 6 mps 742 mmHg 91%
    12:00 -12°C° 0.1 mm 6 mps 742 mmHg 91%
    13:00 -12°C° 0.2 mm 6 mps 742 mmHg 92%
    14:00 -13°C° 0.2 mm 5 mps 742 mmHg 92%
    15:00 -13°C° 0.2 mm 5 mps 742 mmHg 93%
    16:00 -13°C° 0.2 mm 5 mps 742 mmHg 93%
    17:00 -14°C° 0.2 mm 4 mps 742 mmHg 94%
    18:00 -14°C° 0.2 mm 4 mps 742 mmHg 94%
    19:00 -13°C° 0.2 mm 3 mps 741 mmHg 95%
    20:00 -13°C° 0.2 mm 3 mps 741 mmHg 95%
    21:00 -12°C° 0.2 mm 2 mps 741 mmHg 96%
    22:00 -12°C° 0.1 mm 2 mps 741 mmHg 96%
    23:00 -11°C° 0.1 mm 1 mps 741 mmHg 97%

    22 January, Tuesday

    Time Temperature Precipitation Wind Pressure Humidity
    00:00 -11°C° 0.1 mm 1 mps 740 mmHg 97%
    01:00 -12°C° 0.1 mm 1 mps 740 mmHg 97%
    02:00 -14°C° 0.1 mm 2 mps 740 mmHg 97%
    03:00 -15°C° 0.1 mm 2 mps 740 mmHg 98%
    04:00 -16°C° 0 mm 2 mps 740 mmHg 98%
    05:00 -19°C° 0 mm 3 mps 740 mmHg 98%
    06:00 -21°C° 0 mm 3 mps 740 mmHg 98%
    07:00 -22°C° 0 mm 3 mps 740 mmHg 99%
    08:00 -23°C° 0 mm 3 mps 740 mmHg 99%
    09:00 -25°C° 0 mm 3 mps 740 mmHg 99%
    10:00 -24°C° 0 mm 3 mps 740 mmHg 98%
    11:00 -24°C° 0 mm 4 mps 741 mmHg 98%
    12:00 -24°C° 0 mm 4 mps 741 mmHg 97%
    13:00 -24°C° 0 mm 4 mps 741 mmHg 97%
    14:00 -25°C° 0 mm 4 mps 741 mmHg 97%
    15:00 -25°C° 0 mm 4 mps 742 mmHg 97%
    16:00 -26°C° 0 mm 4 mps 742 mmHg 98%
    17:00 -26°C° 0 mm 3 mps 743 mmHg 98%
    18:00 -26°C° 0 mm 3 mps 743 mmHg 98%
    19:00 -26°C° 0 mm 3 mps 743 mmHg 98%
    20:00 -26°C° 0 mm 3 mps 743 mmHg 98%
    21:00 -27°C° 0 mm 3 mps 744 mmHg 98%
    22:00 -27°C° 0 mm 3 mps 744 mmHg 98%
    23:00 -29°C° 0 mm 3 mps 744 mmHg 98%

    23 January, Wednesday

    Time Temperature Precipitation Wind Pressure Humidity
    00:00 -29°C° 0 mm 3 mps 744 mmHg 98%
    01:00 -30°C° 0 mm 3 mps 745 mmHg 98%
    02:00 -31°C° 0 mm 3 mps 745 mmHg 98%
    03:00 -32°C° 0 mm 3 mps 745 mmHg 98%
    04:00 -32°C° 0 mm 3 mps 746 mmHg 99%
    05:00 -33°C° 0 mm 3 mps 746 mmHg 99%
    06:00 -34°C° 0 mm 3 mps 746 mmHg 99%
    07:00 -32°C° 0 mm 2 mps 747 mmHg 99%
    08:00 -32°C° 0 mm 2 mps 747 mmHg 99%
    09:00 -34°C° 0 mm 2 mps 747 mmHg 98%
    10:00 -31°C° 0 mm 2 mps 748 mmHg 98%
    11:00 -30°C° 0 mm 2 mps 748 mmHg 97%
    12:00 -27°C° 0 mm 1 mps 748 mmHg 96%
    13:00 -27°C° 0 mm 1 mps 749 mmHg 97%
    14:00 -28°C° 0 mm 1 mps 749 mmHg 97%
    15:00 -28°C° 0 mm 1 mps 749 mmHg 97%
    16:00 -29°C° 0 mm 1 mps 749 mmHg 97%
    17:00 -29°C° 0 mm 1 mps 750 mmHg 98%
    18:00 -30°C° 0 mm 1 mps 750 mmHg 98%
    19:00 -30°C° 0 mm 1 mps 750 mmHg 99%
    20:00 -30°C° 0 mm 1 mps 750 mmHg 99%
    21:00 -31°C° 0 mm 1 mps 751 mmHg 99%
    22:00 -30°C° 0 mm 0 mps 751 mmHg 99%
    23:00 -30°C° 0 mm 0 mps 751 mmHg 99%
    Show more